Location: Arcones
(41.1182°N, 3.7238°W)
Time: 16:20:44
(UTC+00:00)

Cosmos 2266 Rocket - Pass Details

Date: 11 December 2025
Orbit: 933 x 1007 km, 82.9° (Epoch: 16 January)

Event Time Altitude Azimuth Distance (km) Brightness Sun altitude
Rises 17:40:23 0° 352° (N) 3,648 6.9 -10.0°
Reaches altitude 10° 17:42:54 10° 353° (N) 2,688 6.2 -10.4°
Maximum altitude 17:49:03 86° 82° (E) 949 3.9 -11.5°
Drops below altitude 10° 17:55:05 10° 173° (S) 2,636 6.4 -12.6°
Sets 17:57:32 0° 174° (S) 3,573 7.1 -13.0°
